Location: Chervonnoye
(48.6000°N, 34.4000°E)
Time: 22:35:10
(UTC+00:00)

TIGRISAT - Visible Passes

Search period start: 01 December 2021 00:00
Search period end: 11 December 2021 00:00
Orbit: 603 x 689 km, 97.7° (Epoch: 01 December)

Date Brightness Start Highest point End Pass type
(mag) Time Alt. Az. Time Alt. Az. Time Alt. Az.
01 Dec ? 02:53:54 10° SE 02:57:37 30° ENE 03:01:21 10° N visible
01 Dec ? 04:30:29 10° SSW 04:34:16 30° W 04:38:04 10° NNW visible
02 Dec ? 03:18:43 10° SSE 03:22:52 52° ENE 03:27:01 10° N visible
03 Dec ? 02:10:22 10° E 02:12:09 12° ENE 02:13:56 10° NNE visible
03 Dec ? 03:43:55 10° SSE 03:48:12 87° WSW 03:52:29 10° NNW visible
04 Dec ? 02:34:06 10° ESE 02:37:14 20° ENE 02:40:21 10° NNE visible
04 Dec ? 04:09:29 10° S 04:13:37 48° W 04:17:44 10° NNW visible
05 Dec ? 02:58:34 10° SE 03:02:24 33° ENE 03:06:14 10° N visible
05 Dec ? 04:35:29 10° SSW 04:39:07 27° W 04:42:46 10° NW visible
06 Dec ? 03:23:28 10° SSE 03:27:39 59° ENE 03:31:50 10° N visible
07 Dec ? 02:14:43 10° E 02:16:53 14° ENE 02:19:02 10° NNE visible
07 Dec ? 03:48:45 10° S 03:52:59 77° WSW 03:57:15 10° NNW visible
08 Dec ? 02:38:40 10° ESE 02:41:58 22° ENE 02:45:16 10° NNE visible
08 Dec ? 04:14:24 10° S 04:18:26 42° W 04:22:28 10° NNW visible
09 Dec ? 03:03:14 10° SE 03:07:09 37° ENE 03:11:05 10° N visible
09 Dec ? 04:40:30 10° SSW 04:43:57 24° W 04:47:25 10° NW visible
10 Dec ? 03:28:13 10° SSE 03:32:25 67° ENE 03:36:39 10° N visible
